User: anonymous   Login
Location: Unspecified
(0.0000°N, 0.0000°E)
Time: 01:56:58
(UTC+00:00)
Language:

Geos 2 (Explorer 36) - Orbit

View from above orbital plane
View from above orbital plane
View from above satellite
View from above satellite

Ground track
Ground track

The orbit data is extracted from the following two-line orbital elements,

1  3093U 68002A   17147.82460196 -.00000073 +00000-0 +48189-5 0  9993
2  3093 105.7990 105.0811 0318423 073.4378 343.0822 12.83528980312999
Epoch (UTC): 27 May 2017 19:47:25
Eccentricity: 0.0318423
inclination: 105.7990°
perigee height: 1082 km
apogee height: 1572 km
right ascension of ascending node: 105.0811°
argument of perigee: 73.4378°
revolutions per day: 12.83528980
mean anomaly at epoch: 343.0822°
orbit number at epoch: 31299

The dashed part of the orbit path shows where the satellite is in the earth's shadow,  

DLR